| time (UTC) | temp F | wind direction | speed knots | gust knots | rain 1hr in | rain 24hr in | rain mn in | humidity % | barometer mb |
| 20260505022502 | 55 | 203 | 0.0 | 0.0 | 0.00 | 0.00 | 0.00 | 70 | 1003.4 |
| 20260505022002 | 55 | 203 | 0.0 | 0.9 | 0.00 | 0.00 | 0.00 | 69 | 1003.4 |
| 20260505021003 | 56 | 297 | 0.0 | 0.9 | 0.00 | 0.00 | 0.00 | 68 | 1003.5 |
| 20260505020502 | 56 | 297 | 0.0 | 0.0 | 0.00 | 0.00 | 0.00 | 69 | 1003.6 |
| 20260505020002 | 57 | 297 | 0.0 | 0.9 | 0.00 | 0.00 | 0.00 | 68 | 1003.7 |
| 20260505015503 | 57 | 297 | 0.0 | 0.0 | 0.00 | 0.00 | 0.00 | 66 | 1003.8 |
| 20260505015002 | 58 | 297 | 0.0 | 0.0 | 0.00 | 0.00 | 0.00 | 63 | 1003.8 |
| 20260505014502 | 58 | 297 | 0.0 | 0.9 | 0.00 | 0.00 | 0.00 | 61 | 1003.7 |
| 20260505014003 | 59 | 297 | 0.0 | 0.9 | 0.00 | 0.00 | 0.00 | 59 | 1003.6 |
| 20260505013003 | 60 | 297 | 0.0 | 0.9 | 0.00 | 0.00 | 0.00 | 56 | 1003.5 |
| 20260505012502 | 60 | 297 | 0.0 | 0.9 | 0.00 | 0.00 | 0.00 | 55 | 1003.4 |
| 20260505012003 | 60 | 297 | 0.0 | 0.0 | 0.00 | 0.00 | 0.00 | 54 | 1003.4 |
| 20260505011503 | 61 | 297 | 0.0 | 0.9 | 0.00 | 0.00 | 0.00 | 54 | 1003.4 |
| 20260505011002 | 61 | 297 | 0.0 | 0.0 | 0.00 | 0.00 | 0.00 | 53 | 1003.4 |
| 20260505010503 | 62 | 297 | 0.0 | 0.9 | 0.00 | 0.00 | 0.00 | 52 | 1003.4 |
| 20260505005502 | 63 | 297 | 0.0 | 0.0 | 0.00 | 0.00 | 0.00 | 50 | 1003.3 |
| 20260505005003 | 63 | 297 | 0.0 | 0.9 | 0.00 | 0.00 | 0.00 | 49 | 1003.3 |
| 20260505003503 | 64 | 298 | 0.0 | 0.9 | 0.00 | 0.00 | 0.00 | 48 | 1003.2 |
| 20260505003002 | 64 | 298 | 0.0 | 0.9 | 0.00 | 0.00 | 0.00 | 47 | 1003.3 |
| 20260505002503 | 64 | 298 | 0.9 | 1.7 | 0.00 | 0.00 | 0.00 | 49 | 1003.3 |
| 20260505002002 | 65 | 306 | 0.9 | 1.7 | 0.00 | 0.00 | 0.00 | 49 | 1003.3 |
| 20260505000003 | 68 | 169 | 0.0 | 0.0 | 0.00 | 0.00 | 0.00 | 41 | 1003.1 |
| 20260504235502 | 69 | 217 | 0.0 | 0.0 | 0.00 | 0.00 | 0.00 | 40 | 1003.0 |
| 20260504235003 | 70 | 217 | 0.0 | 0.0 | 0.00 | 0.00 | 0.00 | 39 | 1003.0 |
| 20260504234502 | 70 | 217 | 0.0 | 0.0 | 0.00 | 0.00 | 0.00 | 39 | 1003.1 |
| 20260504234003 | 71 | 217 | 0.0 | 0.0 | 0.00 | 0.00 | 0.00 | 38 | 1003.1 |
| 20260504233503 | 72 | 217 | 0.0 | 0.0 | 0.00 | 0.00 | 0.00 | 37 | 1003.1 |
| 20260504233003 | 73 | 246 | 0.0 | 1.7 | 0.00 | 0.00 | 0.00 | 37 | 1003.1 |
| 20260504232502 | 73 | 179 | 0.0 | 0.9 | 0.00 | 0.00 | 0.00 | 36 | 1003.1 |
| 20260504232003 | 73 | 143 | 0.0 | 2.6 | 0.00 | 0.00 | 0.00 | 36 | 1003.0 |
| 20260504231503 | 73 | 205 | 1.7 | 4.3 | 0.00 | 0.00 | 0.00 | 35 | 1003.0 |
| 20260504231003 | 73 | 225 | 0.0 | 2.6 | 0.00 | 0.00 | 0.00 | 36 | 1003.0 |
| 20260504230503 | 73 | 224 | 1.7 | 2.6 | 0.00 | 0.00 | 0.00 | 35 | 1003.0 |
| 20260504225503 | 75 | 216 | 1.7 | 2.6 | 0.00 | 0.00 | 0.00 | 35 | 1003.0 |
| 20260504225003 | 76 | 166 | 0.9 | 4.3 | 0.00 | 0.00 | 0.00 | 33 | 1002.9 |
| 20260504224502 | 76 | 203 | 1.7 | 2.6 | 0.00 | 0.00 | 0.00 | 33 | 1002.8 |
| 20260504224003 | 76 | 154 | 1.7 | 7.0 | 0.00 | 0.00 | 0.00 | 33 | 1002.9 |
| 20260504223502 | 76 | 246 | 0.9 | 2.6 | 0.00 | 0.00 | 0.00 | 35 | 1002.9 |
| 20260504223002 | 76 | 259 | 2.6 | 7.8 | 0.00 | 0.00 | 0.00 | 34 | 1002.9 |
| 20260504222503 | 76 | 152 | 0.9 | 4.3 | 0.00 | 0.00 | 0.00 | 34 | 1003.0 |
| 20260504222003 | 76 | 226 | 1.7 | 7.0 | 0.00 | 0.00 | 0.00 | 33 | 1003.0 |
| 20260504221502 | 76 | 205 | 2.6 | 6.1 | 0.00 | 0.00 | 0.00 | 34 | 1003.0 |
| 20260504220503 | 76 | 208 | 3.5 | 8.7 | 0.00 | 0.00 | 0.00 | 32 | 1003.1 |
| 20260504220003 | 76 | 244 | 2.6 | 6.1 | 0.00 | 0.00 | 0.00 | 34 | 1003.0 |
| 20260504215503 | 76 | 203 | 1.7 | 7.8 | 0.00 | 0.00 | 0.00 | 34 | 1003.1 |
| 20260504215003 | 76 | 233 | 2.6 | 5.2 | 0.00 | 0.00 | 0.00 | 35 | 1003.1 |
| 20260504214503 | 76 | 220 | 0.9 | 6.1 | 0.00 | 0.00 | 0.00 | 36 | 1003.3 |
| 20260504214003 | 76 | 225 | 4.3 | 10.4 | 0.00 | 0.00 | 0.00 | 35 | 1003.2 |
| 20260504213503 | 76 | 233 | 1.7 | 5.2 | 0.00 | 0.00 | 0.00 | 37 | 1003.2 |
| 20260504213003 | 76 | 286 | 4.3 | 12.2 | 0.00 | 0.00 | 0.00 | 33 | 1003.2 |
| 20260504212503 | 76 | 309 | 1.7 | 7.8 | 0.00 | 0.00 | 0.00 | 35 | 1003.3 |
| 20260504212002 | 77 | 223 | 1.7 | 7.0 | 0.00 | 0.00 | 0.00 | 36 | 1003.2 |
| 20260504211503 | 76 | 198 | 1.7 | 7.0 | 0.00 | 0.00 | 0.00 | 36 | 1003.4 |
| 20260504211003 | 76 | 245 | 1.7 | 5.2 | 0.00 | 0.00 | 0.00 | 37 | 1003.5 |
| 20260504210003 | 75 | 245 | 5.2 | 11.3 | 0.00 | 0.00 | 0.00 | 35 | 1003.7 |
| 20260504205503 | 76 | 301 | 3.5 | 12.2 | 0.00 | 0.00 | 0.00 | 34 | 1003.6 |
| 20260504205003 | 76 | 244 | 4.3 | 10.4 | 0.00 | 0.00 | 0.00 | 36 | 1003.7 |
| 20260504204503 | 76 | 223 | 4.3 | 8.7 | 0.00 | 0.00 | 0.00 | 37 | 1003.7 |
| 20260504204003 | 76 | 193 | 1.7 | 7.0 | 0.00 | 0.00 | 0.00 | 38 | 1003.6 |
| 20260504203503 | 75 | 215 | 2.6 | 7.8 | 0.00 | 0.00 | 0.00 | 36 | 1003.7 |
| 20260504203003 | 75 | 235 | 2.6 | 7.0 | 0.00 | 0.00 | 0.00 | 37 | 1003.7 |
| 20260504202503 | 75 | 191 | 2.6 | 7.8 | 0.00 | 0.00 | 0.00 | 35 | 1003.8 |
| 20260504201003 | 75 | 174 | 2.6 | 11.3 | 0.00 | 0.00 | 0.00 | 39 | 1004.0 |
| 20260504200503 | 75 | 249 | 5.2 | 11.3 | 0.00 | 0.00 | 0.00 | 37 | 1004.0 |
| 20260504200002 | 74 | 226 | 4.3 | 10.4 | 0.00 | 0.00 | 0.00 | 38 | 1004.1 |
| 20260504195503 | 75 | 260 | 5.2 | 11.3 | 0.00 | 0.00 | 0.00 | 35 | 1004.2 |
| 20260504194503 | 75 | 252 | 3.5 | 10.4 | 0.00 | 0.00 | 0.00 | 37 | 1004.3 |
| 20260504194003 | 75 | 214 | 4.3 | 11.3 | 0.00 | 0.00 | 0.00 | 38 | 1004.4 |
| 20260504193503 | 75 | 229 | 4.3 | 13.0 | 0.00 | 0.00 | 0.00 | 38 | 1004.4 |
| 20260504193003 | 74 | 261 | 4.3 | 8.7 | 0.00 | 0.00 | 0.00 | 40 | 1004.5 |
| 20260504192503 | 74 | 289 | 2.6 | 11.3 | 0.00 | 0.00 | 0.00 | 41 | 1004.5 |
| 20260504192003 | 73 | 281 | 5.2 | 19.1 | 0.00 | 0.00 | 0.00 | 40 | 1004.4 |
| 20260504191503 | 74 | 248 | 5.2 | 10.4 | 0.00 | 0.00 | 0.00 | 38 | 1004.6 |
| 20260504191003 | 74 | 251 | 2.6 | 8.7 | 0.00 | 0.00 | 0.00 | 41 | 1004.7 |
| 20260504190003 | 73 | 238 | 0.9 | 8.7 | 0.00 | 0.00 | 0.00 | 44 | 1004.8 |
| 20260504185503 | 72 | 298 | 6.1 | 17.4 | 0.00 | 0.00 | 0.00 | 40 | 1004.8 |
| 20260504184503 | 73 | 250 | 3.5 | 12.2 | 0.00 | 0.00 | 0.00 | 43 | 1005.1 |
| 20260504184003 | 72 | 184 | 4.3 | 11.3 | 0.00 | 0.00 | 0.00 | 43 | 1005.1 |
| 20260504183503 | 73 | 260 | 4.3 | 10.4 | 0.00 | 0.00 | 0.00 | 43 | 1005.3 |
| 20260504183004 | 72 | 196 | 4.3 | 10.4 | 0.00 | 0.00 | 0.00 | 44 | 1005.3 |
| 20260504182503 | 73 | 255 | 4.3 | 12.2 | 0.00 | 0.00 | 0.00 | 44 | 1005.4 |
| 20260504182003 | 73 | 217 | 2.6 | 12.2 | 0.00 | 0.00 | 0.00 | 47 | 1005.3 |
| 20260504181503 | 72 | 185 | 2.6 | 13.0 | 0.00 | 0.00 | 0.00 | 46 | 1005.3 |
| 20260504181004 | 72 | 210 | 4.3 | 13.0 | 0.00 | 0.00 | 0.00 | 43 | 1005.3 |
| 20260504180503 | 72 | 233 | 4.3 | 11.3 | 0.00 | 0.00 | 0.00 | 44 | 1005.4 |
| 20260504180003 | 72 | 276 | 4.3 | 13.9 | 0.00 | 0.00 | 0.00 | 43 | 1005.4 |
| 20260504175503 | 72 | 200 | 2.6 | 10.4 | 0.00 | 0.00 | 0.00 | 47 | 1005.5 |
| 20260504175003 | 72 | 190 | 4.3 | 10.4 | 0.00 | 0.00 | 0.00 | 45 | 1005.4 |
| 20260504174504 | 72 | 234 | 1.7 | 11.3 | 0.00 | 0.00 | 0.00 | 46 | 1005.6 |
| 20260504174003 | 72 | 258 | 3.5 | 10.4 | 0.00 | 0.00 | 0.00 | 45 | 1005.6 |
| 20260504173503 | 72 | 224 | 2.6 | 7.8 | 0.00 | 0.00 | 0.00 | 45 | 1005.6 |
| 20260504173003 | 72 | 227 | 1.7 | 7.0 | 0.00 | 0.00 | 0.00 | 46 | 1005.7 |
| 20260504172503 | 72 | 213 | 2.6 | 6.1 | 0.00 | 0.00 | 0.00 | 47 | 1005.7 |
| 20260504172004 | 71 | 173 | 2.6 | 5.2 | 0.00 | 0.00 | 0.00 | 49 | 1005.7 |
| 20260504171003 | 70 | 252 | 2.6 | 4.3 | 0.00 | 0.00 | 0.00 | 49 | 1005.7 |
| 20260504170504 | 70 | 205 | 1.7 | 10.4 | 0.00 | 0.00 | 0.00 | 48 | 1005.9 |
| 20260504150504 | 66 | 191 | 1.7 | 8.7 | 0.00 | 0.00 | 0.00 | 50 | 1006.7 |
| 20260504141003 | 63 | 239 | 0.9 | 6.1 | 0.00 | 0.00 | 0.00 | 53 | 1006.7 |
| 20260504140504 | 63 | 225 | 4.3 | 10.4 | 0.00 | 0.00 | 0.00 | 50 | 1006.8 |
| 20260504110503 | 52 | 159 | 0.9 | 2.6 | 0.00 | 0.00 | 0.00 | 60 | 1007.4 |
| 20260504100503 | 51 | 205 | 0.9 | 4.3 | 0.00 | 0.00 | 0.00 | 62 | 1007.4 |
| 20260504082003 | 50 | 170 | 0.9 | 2.6 | 0.00 | 0.00 | 0.00 | 64 | 1007.9 |
| 20260504080503 | 50 | 217 | 0.9 | 2.6 | 0.00 | 0.00 | 0.00 | 64 | 1008.0 |
| 20260504050503 | 52 | 220 | 0.0 | 0.9 | 0.00 | 0.00 | 0.00 | 62 | 1009.1 |
| 20260504050003 | 52 | 210 | 0.9 | 2.6 | 0.00 | 0.00 | 0.00 | 61 | 1009.1 |
| 20260504045503 | 52 | 211 | 0.9 | 2.6 | 0.00 | 0.00 | 0.00 | 61 | 1009.2 |
| 20260504045004 | 53 | 192 | 0.9 | 2.6 | 0.00 | 0.00 | 0.00 | 61 | 1009.1 |
| 20260504044503 | 53 | 236 | 1.7 | 2.6 | 0.00 | 0.00 | 0.00 | 60 | 1009.2 |
| 20260504044003 | 53 | 132 | 0.0 | 1.7 | 0.00 | 0.00 | 0.00 | 60 | 1009.1 |
| 20260504043503 | 53 | 222 | 0.9 | 2.6 | 0.00 | 0.00 | 0.00 | 60 | 1009.1 |
| 20260504043003 | 53 | 206 | 0.9 | 4.3 | 0.00 | 0.00 | 0.00 | 61 | 1009.1 |
| 20260504042503 | 53 | 164 | 0.9 | 4.3 | 0.00 | 0.00 | 0.00 | 61 | 1009.1 |
| 20260504042003 | 53 | 92 | 0.0 | 1.7 | 0.00 | 0.00 | 0.00 | 60 | 1009.1 |
| 20260504041503 | 53 | 241 | 0.9 | 2.6 | 0.00 | 0.00 | 0.00 | 60 | 1009.1 |
| 20260504040003 | 53 | 226 | 1.7 | 4.3 | 0.00 | 0.00 | 0.00 | 60 | 1009.2 |
| 20260504035003 | 53 | 245 | 1.7 | 7.8 | 0.00 | 0.00 | 0.00 | 61 | 1009.1 |
| 20260504034503 | 53 | 133 | 0.9 | 2.6 | 0.00 | 0.00 | 0.00 | 62 | 1009.1 |
| 20260504034003 | 52 | 233 | 0.9 | 2.6 | 0.00 | 0.00 | 0.00 | 63 | 1009.1 |
| 20260504033003 | 52 | 234 | 0.0 | 2.6 | 0.00 | 0.00 | 0.00 | 63 | 1009.2 |
| 20260504032503 | 52 | 207 | 0.0 | 0.0 | 0.00 | 0.00 | 0.00 | 64 | 1009.1 |
| 20260504032004 | 52 | 203 | 0.9 | 2.6 | 0.00 | 0.00 | 0.00 | 64 | 1009.2 |
| 20260504031503 | 52 | 118 | 0.0 | 0.9 | 0.00 | 0.00 | 0.00 | 64 | 1009.2 |
| 20260504031003 | 52 | 233 | 0.0 | 0.9 | 0.00 | 0.00 | 0.00 | 63 | 1009.3 |
| 20260504030503 | 53 | 243 | 0.0 | 0.9 | 0.00 | 0.00 | 0.00 | 63 | 1009.4 |
| 20260504030003 | 53 | 221 | 0.0 | 1.7 | 0.00 | 0.00 | 0.00 | 63 | 1009.4 |
| 20260504025503 | 53 | 158 | 0.0 | 2.6 | 0.00 | 0.00 | 0.00 | 62 | 1009.4 |
| 20260504025003 | 53 | 130 | 0.0 | 2.6 | 0.00 | 0.00 | 0.00 | 62 | 1009.4 |
| 20260504024504 | 53 | 232 | 0.9 | 4.3 | 0.00 | 0.00 | 0.00 | 63 | 1009.4 |
| 20260504024003 | 53 | 210 | 1.7 | 2.6 | 0.00 | 0.00 | 0.00 | 63 | 1009.5 |
| 20260504023504 | 52 | 189 | 0.9 | 4.3 | 0.00 | 0.00 | 0.00 | 64 | 1009.5 |
| 20260504023003 | 52 | 220 | 0.9 | 2.6 | 0.00 | 0.00 | 0.00 | 65 | 1009.6 |